Location: Calavant�
(43.2048°N, 0.1612°E)
Time: 00:27:53
(UTC+00:00)

Daily predictions for brighter satellites

Satellite Brightness Start Highest point End
(mag) Time Altitude Azimuth Time Altitude Azimuth Time Altitude Azimuth
ATLAS CENTAUR R/B 3.9 00:07:30 19° WSW 00:11:36 65° NNW 00:25:29 10° NE
Cosmos 1825 3.9 00:13:02 22° E 00:13:02 22° E 00:15:51 10° NE
Cosmos 1408 3.4 00:19:18 44° ENE 00:19:18 44° ENE 00:22:25 10° NNE
Cosmos 1812 Rocket 3.8 00:15:05 10° NNW 00:19:21 56° W 00:19:25 55° W
SL-16 R/B 2.6 00:19:57 36° WSW 00:22:00 56° WNW 00:27:36 10° NNE
Cosmos 405 Rocket 3.8 00:23:36 33° E 00:23:36 33° E 00:26:37 10° NNE
USA 229 DEB 3.5 00:22:35 47° SSW 00:24:34 76° ESE 00:31:21 10° NE
Cosmos 2058 4.4 00:24:22 25° E 00:24:40 25° E 00:28:03 10° NNE
USA 229 3.5 00:22:42 47° SSW 00:24:40 76° ESE 00:31:27 10° NE
Cosmos 2237 Rocket 4.2 00:21:12 10° W 00:25:27 22° NW 00:29:43 10° N
X-37B 3.1 00:28:47 16° ENE 00:28:47 16° ENE 00:29:29 10° ENE
Cosmos 2221 4.3 00:23:27 10° NNE 00:26:54 23° ENE 00:28:23 19° ESE
NOSS 3-1 (C) 3.6 00:31:10 35° WSW 00:33:24 61° NW 00:39:36 10° NNE
Cosmos 1898 Rocket 4.0 00:28:56 10° NNW 00:34:04 53° ENE 00:36:11 32° SE
Cosmos 2369 Rocket 2.4 00:30:45 10° NNW 00:36:29 67° ENE 00:38:58 34° SE
Cosmos 1356 4.0 00:37:29 56° NNE 00:37:29 56° NNE 00:40:15 10° NNE
SJ 16-02 2.0 00:36:10 10° NNW 00:40:01 41° W 00:40:01 41° W
GP-B 4.0 00:37:20 10° NNW 00:41:24 36° W 00:41:51 36° W
NOSS 2-3 (E) 4.1 00:42:31 42° W 00:43:30 51° NW 00:48:10 10° NNE
NOSS 3-1 (A) 3.1 00:42:42 49° SW 00:44:17 86° NW 00:50:30 10° NE
Cosmos 1825 Rocket 3.7 00:45:41 55° WSW 00:46:08 59° W 00:50:32 10° N
ATLAS 5 CENTAUR R/B 3.3 00:48:04 17° ESE 00:48:04 17° ESE 00:50:28 10° ENE
USA 308 4.2 00:53:27 28° ESE 00:53:27 28° ESE 00:56:22 10° ENE
CZ-4 R/B 3.9 00:48:04 10° NNE 00:52:42 62° ESE 00:53:33 52° SSE
Helios 1A 3.1 01:00:06 55° SE 01:00:51 70° ENE 01:05:03 10° N
Cosmos 468 Rocket 4.1 01:00:57 48° SW 01:02:18 69° WNW 01:07:32 10° NNE
Cosmos 1606 4.2 00:59:37 10° NNE 01:03:04 30° ENE 01:04:13 25° ESE
SL-16 R/B 3.4 00:59:52 15° SE 01:04:44 45° ENE 01:10:34 10° N
USA 305 3.3 01:10:32 45° SE 01:10:32 45° SE 01:14:28 10° ENE
USA 290 4.1 01:11:15 23° E 01:11:15 23° E 01:13:35 10° NE
Cosmos 1953 Rocket 4.0 01:10:29 45° WSW 01:11:05 48° WNW 01:15:21 10° N
Lacrosse 4 Rocket 3.4 01:11:42 10° N 01:15:09 26° NE 01:18:34 10° ESE
Cosmos 2098 Rocket 3.5 01:15:08 43° S 01:16:58 77° E 01:21:32 10° N
Cosmos 1763 Rocket 3.9 01:15:44 37° WSW 01:17:18 51° WNW 01:22:19 10° N
BREEZE-M R/B 2.9 01:18:11 43° SE 01:18:11 43° SE 01:22:03 10° ENE
USA 267 3.7 01:19:19 36° SSW 01:20:29 39° SW 01:26:32 10° WNW
Cosmos 1892 4.3 01:21:02 23° W 01:21:20 23° WNW 01:24:30 10° NNW
Cosmos 1437 Rocket 2.5 01:18:16 10° NNW 01:22:08 71° W 01:22:18 70° WSW
Resurs 1-4 Rocket 2.5 01:17:02 10° NNE 01:22:17 57° E 01:24:23 34° SSE
SL-4 R/B 4.3 01:21:45 10° NW 01:24:44 21° N 01:27:34 10° NE
Cosmos 1943 Rocket 3.4 01:25:03 10° NW 01:29:18 23° WSW 01:29:31 23° WSW
NOSS 2-2 (D) 3.5 01:30:21 45° ESE 01:30:21 45° ESE 01:33:46 10° NE
Cosmos 1842 Rocket 3.4 01:27:56 10° NNW 01:32:16 73° W 01:33:14 52° SSW
USA 306 2.8 01:32:05 57° S 01:32:44 68° SE 01:36:58 10° ENE
NPP 4.0 01:28:09 10° NNE 01:33:29 57° E 01:35:57 30° SSE
Cosmos 921 Rocket 2.8 01:32:38 55° S 01:33:30 84° ESE 01:37:43 10° NNE
Exosat Rocket 4.4 01:30:27 28° WSW 01:33:34 49° WNW 01:38:45 10° NNE
ADEOS II 3.3 01:29:06 10° NNE 01:33:50 33° E 01:36:49 19° SSE
Cosmos 1943 3.5 01:33:25 33° SW 01:35:46 58° WNW 01:41:21 10° NNE
Meteor 2-8 Rocket 4.4 01:29:38 10° N 01:35:48 81° W 01:38:53 32° S
FALCON 9 DEB 4.4 01:32:54 10° NW 01:36:10 42° NNE 01:39:24 10° ESE
MOZ.5/SAFIR/RUBIN 5/SL-8 3.9 01:38:05 43° SSW 01:39:19 58° W 01:44:02 10° NNW
CZ-2D R/B 2.0 01:35:47 10° NNE 01:41:01 80° ESE 01:43:15 36° S
Cosmos 1603 4.3 01:41:52 28° WSW 01:44:32 48° WNW 01:50:00 10° NNE
Cosmos 2151 3.4 01:44:56 33° SSE 01:46:32 55° E 01:50:39 10° NNE
IDEFIX/ARIANE 42P 4.4 01:43:55 10° NE 01:48:07 24° E 01:52:17 10° SSE
Cosmos 1825 3.7 01:47:48 23° W 01:48:14 23° WNW 01:51:18 10° NNW
Cosmos 1076 Rocket 3.4 01:49:45 45° SSW 01:50:58 72° W 01:55:12 10° N
AQUA 4.0 01:48:18 10° NNE 01:53:04 68° ESE 01:55:17 31° S
Cosmos 1437 2.3 01:53:15 10° NNW 01:55:51 73° NW 01:55:51 73° NW
Cosmos 540 Rocket 4.2 01:55:00 27° WSW 01:57:11 41° WNW 02:02:02 10° N
Cosmos 1242 Rocket 3.0 01:56:22 10° NNW 01:59:47 42° W 02:00:05 41° WSW
DELTA 2 R/B (1) 3.6 01:57:41 25° WSW 02:00:51 60° S 02:06:19 10° E
Cosmos 2058 4.3 02:00:33 23° W 02:01:29 25° WNW 02:04:53 10° NNW
X-37B 0.9 02:01:03 20° WNW 02:03:07 67° N 02:06:17 10° E
Cosmos 2221 3.5 02:00:43 10° NNW 02:04:28 30° W 02:05:13 28° WSW
Cosmos 841 Rocket 4.2 02:03:07 26° WSW 02:05:30 41° WNW 02:10:23 10° N
BREEZE-M DEB (TANK) 3.8 02:03:21 10° NW 02:05:34 24° N 02:07:32 10° ENE
IRS-1D 4.1 02:02:52 10° NNE 02:07:52 51° E 02:11:14 19° S
NOSS 2-2 (E) 3.6 02:08:02 33° W 02:09:12 47° NW 02:12:49 10° NNE
Cosmos 1656 Rocket 4.4 02:04:37 10° NW 02:09:42 34° WSW 02:11:35 27° SW
Cosmos 2292 Rocket 3.3 02:09:52 33° SSE 02:10:51 48° E 02:13:44 10° NNE
Cosmos 1553 Rocket 4.4 02:05:05 10° N 02:11:22 64° E 02:17:29 10° SSE
GPS 2-04 Rocket1 3.8 02:15:42 26° SSE 02:15:42 26° SSE 02:18:43 10° ESE
USA 307 3.2 02:14:11 25° WSW 02:16:29 62° NW 02:20:43 10° NE
USA 281 4.1 02:11:07 10° SE 02:17:24 50° ENE 02:23:42 10° NNW
Cosmos 1782 3.7 02:13:58 10° N 02:17:51 47° ENE 02:21:41 10° SSE
Cosmos 1271 Rocket 4.5 02:16:20 10° N 02:19:41 30° ENE 02:23:01 10° SE
Cosmos 2026 Rocket 4.1 02:16:00 25° SSW 02:19:48 65° W 02:26:08 10° N
Cosmos 2369 Rocket 3.7 02:16:08 10° WNW 02:19:53 18° W 02:20:43 18° WSW
NOSS 2-2 (C) 3.7 02:21:26 27° WSW 02:22:53 44° NW 02:26:26 10° NNE
ERBS 2.9 02:24:39 32° S 02:25:35 41° SE 02:28:39 10° ENE
Aureole 3 Rocket 4.0 02:22:23 10° NNW 02:26:13 37° W 02:28:37 24° SW
Cosmos 1633 3.8 02:27:25 23° W 02:28:19 25° WNW 02:31:18 10° NNW
Helios 1B rocket 3.2 02:24:46 10° N 02:28:35 39° WNW 02:30:26 25° WSW
ATLAS 5 CENTAUR R/B 2.1 02:29:34 22° WSW 02:31:48 43° NW 02:36:01 10° NNE
Cosmos 1328 Rocket 4.5 02:27:38 10° N 02:31:52 47° ENE 02:36:05 10° SSE
FALCON 9 DEB 4.4 02:29:08 10° NW 02:32:03 38° NNE 02:34:58 10° E
USA 308 3.6 02:29:31 18° W 02:32:28 49° NNW 02:36:37 10° NE
SL-19 R/B 4.4 02:28:06 10° N 02:33:17 59° WNW 02:36:50 21° SW
Cosmos 2298 Rocket 4.0 02:29:20 10° NNW 02:34:40 77° WSW 02:39:59 10° SSE
SeaSat 1 3.3 02:32:35 10° NE 02:37:19 44° ESE 02:41:19 14° S
Cosmos 1606 4.4 02:35:54 10° NW 02:38:30 18° W 02:39:10 17° W
ADEOS Rocket 3.4 02:32:40 10° S 02:39:59 67° WSW 02:46:40 10° NNW
Meteor 2-21 4.5 02:36:15 16° S 02:41:21 89° WNW 02:47:34 10° N
FALCON 9 DEB 4.1 02:39:22 10° NW 02:42:21 43° NNE 02:45:19 10° ESE
Cosmos 1933 3.8 02:41:10 10° NNW 02:45:04 44° W 02:47:29 20° SSW
USA 290 4.2 02:44:01 15° W 02:45:21 18° WNW 02:47:40 10° NNW
IRIDIUM 104 4.3 02:40:22 10° N 02:45:34 70° W 02:50:07 14° S
Cosmos 2150 Rocket 4.0 02:41:02 10° NNW 02:46:12 66° WSW 02:51:24 10° S
Cosmos 1833 Rocket 4.3 02:41:38 10° SSE 02:46:22 29° ESE 02:51:08 10° NE
SL-16 R/B 3.4 02:44:57 18° SW 02:48:28 31° W 02:53:51 10° NW
Meteor 1-28 Rocket 3.2 02:45:49 16° S 02:48:44 61° W 02:52:30 10° NNW
DELTA 2 DEB (DPAF) 4.2 02:45:47 13° S 02:49:42 61° WSW 02:54:07 10° NNW
Tianhe-1 3.2 02:49:34 14° S 02:50:23 15° SSE 02:52:17 10° ESE
USA 305 4.1 02:46:34 11° W 02:50:24 37° NNW 02:54:23 10° NE
Lacrosse 4 Rocket 2.1 02:50:13 10° NW 02:53:49 30° WSW 02:56:19 16° SSW
Cosmos 1125 Rocket 3.5 02:48:52 10° NNW 02:54:07 69° WSW 02:59:21 10° S
IRIDIUM 114 4.5 02:49:34 10° N 02:54:42 57° W 02:59:14 13° SSW
Cosmos 1151 Rocket 2.9 02:51:17 10° NNW 02:55:33 72° W 02:59:45 10° S
Cosmos 2266 Rocket 4.1 02:49:27 10° S 02:55:33 76° E 03:01:36 10° N
Meteor 1-29 4.2 02:55:44 10° N 02:58:40 27° WNW 03:00:31 17° WSW
CZ-4B R/B 4.2 02:55:08 10° NNE 03:00:18 53° E 03:05:21 10° S
CZ-4C R/B 2.3 02:56:32 15° SSW 03:00:28 58° ESE 03:06:01 10° NE
ARIANE 5 R/B 3.0 02:56:31 10° NNE 03:01:27 56° ESE 03:06:21 10° S
Resurs 1-4 Rocket 3.7 02:57:47 10° NNW 03:01:41 21° WNW 03:05:28 10° WSW
Cosmos 1766 Rocket 3.8 02:59:08 16° SSW 03:02:38 58° W 03:07:04 10° N
Cosmos 1515 Rocket 4.2 02:58:40 10° N 03:03:02 58° E 03:07:24 10° SSE
SL-4 R/B 3.5 03:01:45 10° NW 03:05:03 32° NNE 03:08:12 10° E
Cosmos 1408 Rocket 3.8 03:00:50 10° S 03:05:15 75° E 03:09:44 10° NNE
Cosmos 2082 Rocket 4.3 03:05:11 10° SSE 03:09:20 22° E 03:13:30 10° NE
COSMOS 2441 4.5 03:04:39 10° NNE 03:09:30 79° ESE 03:14:18 10° S
CENTAUR R/B 4.0 03:02:18 10° NNW 03:10:16 57° NE 03:18:59 10° SE
Cosmos 1862 3.3 03:08:10 10° S 03:12:12 88° W 03:16:17 10° N
FALCON 9 DEB 4.0 03:10:01 10° WNW 03:12:55 26° SW 03:15:48 10° SSE
USA 306 4.5 03:09:13 10° W 03:12:58 30° NNW 03:16:44 10° NE
ADEOS II 3.1 03:08:48 10° N 03:13:28 33° WNW 03:17:45 12° SW
Okean 3 Rocket 4.0 03:09:58 14° SSW 03:13:32 45° WNW 03:17:46 10° N
Lacrosse 5 rocket 2.6 03:10:39 10° NW 03:14:04 40° NE 03:17:36 10° ESE
CZ-2D R/B 4.1 03:17:34 10° NNW 03:20:24 15° WNW 03:23:13 10° W
ASTEX 1 3.7 03:18:37 10° SSW 03:23:25 49° W 03:28:12 10° NNW
Cosmos 1655 Rocket 4.2 03:17:26 10° SSW 03:23:32 59° WNW 03:29:42 10° N
IDEFIX/ARIANE 42P 3.1 03:22:55 10° N 03:27:53 45° WNW 03:32:49 10° SW
COSMOS 2406 3.6 03:27:02 10° S 03:32:37 66° ESE 03:38:15 10° NNE
PAYLOAD A 4.4 03:32:48 10° NNE 03:37:50 66° ESE 03:43:01 10° S
deb Kosmos-1763 4.1 03:34:45 10° SSW 03:38:12 58° WNW 03:41:43 10° NNE
CZ-2D R/B 3.4 03:35:13 10° N 03:39:25 82° WNW 03:43:28 10° SSW
X-37B 1.0 03:36:41 10° W 03:39:42 41° SSW 03:42:43 10° SE
Spot 4 Rocket 4.2 03:34:39 10° NNE 03:39:49 77° ESE 03:44:57 10° S
DELTA 2 R/B (1) 3.8 03:41:38 10° W 03:46:59 50° SSW 03:52:20 10° ESE
Cosmos 1656 3.8 03:42:26 10° NNW 03:48:03 60° WSW 03:53:38 10° S
